Regional Weather Roundup
Issued by NWS Upton, NY

Current Version | Previous Version | Text Only | Print | Product List | Glossary Off
Versions: 1 2 3 4 5 6 7 8 9 10 11 12 13 14 15 16 17 18 19 20 21 22 23 24 25 26 27 28 29 30 31 32 33 34 35 36 37 38 39 40 41 42 43 44 45 46 47 48 49 50
388 ASUS41 KOKX 250708 RWROKX REGIONAL WEATHER ROUNDUP NATIONAL WEATHER SERVICE NEW YORK NY 300 AM EDT SUN SEP 25 2016 NOTE: "FAIR" INDICATES FEW OR NO CLOUDS BELOW 12,000 FEET WITH NO SIGNIFICANT WEATHER AND/OR OBSTRUCTIONS TO VISIBILITY. NYZ071-072-176-178-NJZ106-104-250800- NEW YORK CITY METRO AREA CITY SKY/WX TMP DP RH WIND PRES REMARKS Central Park CLEAR 57 42 57 VRB3 30.19S LaGuardia APRT CLEAR 61 41 47 N8 30.15S Kennedy INTL PTCLDY 57 40 52 N7 30.16S Newark/Liberty CLEAR 54 43 66 N8 30.16S Bronx Bot Gard N/A 54 41 62 CALM 30.15S Wall St Helipt SUNNY 63 48 59 NE7 30.16F Teterboro CLEAR 54 42 64 NW5 30.16S $$ NYZ177-179-078>081-250800- LONG ISLAND NEW YORK CITY SKY/WX TMP DP RH WIND PRES REMARKS Farmingdale CLEAR 56 42 59 N5 30.15S MacArthur/ISP CLEAR 54 42 64 N7 30.13S Shirley CLEAR 52 44 74 N6 30.14S Riverhead NOT AVBL Westhampton CLEAR 40 38 93 N6 30.14F Southampton N/A 57 46 67 NE3 30.09S Bridgehampton N/A 52 46 82 CALM 29.98R East Hampton FAIR 45 43 93 CALM 30.12S Montauk N/A 59 44 57 N9 30.12S $$ NYZ052-065-067-250800- HUDSON VALLEY CITY SKY/WX TMP DP RH WIND PRES REMARKS White Plains CLEAR 50 39 66 NW7 30.15S Newburgh CLEAR 45 43 93 VRB6 30.18S Montgomery CLEAR 45 41 86 W3 30.18R Poughkeepsie CLEAR 41 39 93 CALM 30.17R Albany CLEAR 44 40 85 CALM 30.18S $$ NJZ001-105-106-008-010-013-015-019>022-104-250800- NEW JERSEY CITY SKY/WX TMP DP RH WIND PRES REMARKS Newark/Liberty CLEAR 54 43 66 N8 30.16S Teterboro CLEAR 54 42 64 NW5 30.16S Caldwell CLEAR 50 46 86 CALM 30.18S Morristown FLURRIES 43 43 100 CALM 30.17S Somerville CLEAR 45 42 89 NW3 30.16S Linden NOT AVBL Sussex CLEAR 42 41 96 CALM 30.19R FOG Abdover N/A 44 43 96 CALM 30.19S Trenton CLEAR 53 42 66 N7 30.16S Millville CLEAR 53 52 96 N5 30.15S Atlantic City CLEAR 52 50 93 NW6 30.14S Wrightstown CLEAR 51 45 80 N8 30.13S Toms River CLEAR 49 47 93 N6 30.15S Belmar PTCLDY 52 47 83 NW7 30.16S $$ PAZ047>061-062-071-250800- EASTERN PENNSYLVANIA CITY SKY/WX TMP DP RH WIND PRES REMARKS Philadelphia CLEAR 59 42 53 N13 30.17S Allentown CLEAR 48 40 73 NW3 30.19S Scranton CLEAR 45 42 89 E6 30.21R $$ CTZ002-004>006-009-010-012-RIZ004-006-007-MAZ004-011-015-250800- SOUTHERN NEW ENGLAND IN CT CITY SKY/WX TMP DP RH WIND PRES REMARKS Bradley INTL CLEAR 48 39 71 NW8 30.15S Hartford CLEAR 46 45 96 CALM 30.15R Danbury CLEAR 42 40 92 CALM 30.17S Wtrbury/Oxford N/A 46 37 71 CALM 30.16S Bridgeport CLEAR 53 41 63 CALM 30.14S Meriden PTCLDY 45 42 89 CALM 30.14S New Haven CLEAR 52 41 66 N8 30.14S Chester FAIR 52 41 66 N7 30.13S Groton CLEAR 49 45 86 N6 30.12S Wilimantic CLEAR 44 43 96 CALM 30.15R IN RI CITY SKY/WX TMP DP RH WIND PRES REMARKS Providence CLEAR 53 37 54 NW9 30.11 Block Island CLEAR 57 43 59 N10 30.11S Westerly CLEAR 45 40 82 CALM 30.13R IN MA CITY SKY/WX TMP DP RH WIND PRES REMARKS Boston CLEAR 53 38 56 NW14 30.10R Worcester CLEAR 50 35 56 NW12 30.12S Westfield CLEAR 39 39 100 CALM 30.15R Provincetown PTCLDY 57 39 51 N20G26 30.07S Nantucket CLEAR 58 40 51 NW18G28 30.06S $$ ANZ330-335-338-340-345-350-353-355-250800- COASTAL MARINE OBSERVATIONS STATION/POSITION TIME SKY/WX TEMP WIND PRES VSBY WAVE AIR SEA DIR/SP/G HT/PER (UTC) (F) (DEG/KT/KT) (MB) (MI) (FT/S) NY HARB ENTRANCE 0650 63 72 10/ 17/ 19 1020.2 4/10 20S FIRE ISLAND 0650 63 71 360/ 16/ 17 1019.6 4/11 GREAT SOUTH BAY 0630 60 72 360/ 8/ 10 N/A 23 SSW MONTAUK P 0650 63 68 350/ 14/ 17 1019.7 4/11 15 E BARNEGAT LI 0630 71 N/A 4/10 HUDSON CANYON 0550 65 69 1019.4 4/11 KINGS POINT 0636 73 1021.0 EXECUTION ROCKS 0645 60 350/ 10/ 16 N/A CENTRAL LI SOUND 0630 61 73 360/ 14/ 17 N/A 2/ 2 EASTERN LI SOUND NOT AVBL ROBBINS REEF 0636 10/ 10/ 12 1021.5 $$ >>>>>>>>>>>>>>>>>>>>>>>>>>>> KEY <<<<<<<<<<<<<<<<<<<<<<<<<<< > < > SKY/WX - Sky Condition/Present Weather < > TMP - Temperature in Fahrenheit < > DP - Dew Point in Fahrenheit < > RH - Relative Humidity in Percent < > WIND - Direction (from) and Speed in MPH < > PRES - Mean Sea Level Pressure (inches of Hg) < > WCI - Wind Chill Index < > VSB - VISIBILITY IN MILES < > HX - HEAT INDEX < > TC - TEMPERATURE IN CELSIUS < > VRB - VARIABLE WIND DIRECTION < > < >>>>>>>>>>>>>>>>>>>>>>>>>>>> KEY <<<<<<<<<<<<<<<<<<<<<<<<<<<

USA.gov is the U.S. government's official web portal to all federal, state and local government web resources and services.